[[{"header":{"parameterUnit":"m.s-1","parameterCategory":1,"la1":30.2991,"la2":30.254,"lo1":-89.0895,"lo2":-89.0444,"dy":0.0017,"dx":0.0017,"nx":28,"ny":28,"refTime":"2024-04-02T09:00:00:Z","depth":0,"parameterNumber":2,"parameterNumberName":"U-component_of_WINDS"},"data":[0,0,0,0,0,0,0,0,0,0,0,0,0,0,0,0,0,0,0,0,0,0,0,0,0,0,0,0,0,0,0,0,0,0,0,0,0,0,0,0,0,0,0,0,0,0,0,0,0,0,0,0,0,0,0,0,0,0,5.5667,5.5669,0,5.5845,5.5847,5.5849,5.578,5.5776,5.5772,5.5768,5.5954,5.5963,5.5971,0,0,0,0,0,0,0,0,0,0,0,0,0,5.5273,5.5281,5.5667,5.5669,5.5671,5.5844,5.5847,5.5849,5.5781,5.5776,5.5771,5.5766,5.5951,5.5961,5.5972,0,0,0,0,0,0,0,0,0,0,0,0,0,5.5447,5.5283,5.5667,5.5658,5.5659,5.5844,5.5847,5.585,5.5782,5.5776,5.577,5.5764,5.5948,5.596,5.5973,5.6178,0,0,5.6014,5.6019,0,0,0,0,0,0,0,0,5.5437,5.5462,5.5657,5.5659,5.566,5.5784,5.5776,5.596,5.5784,5.5736,5.5768,5.5761,5.5903,5.5919,5.5966,5.6187,5.6195,5.6015,5.6023,5.6029,5.6032,0,0,0,0,0,0,0,5.5425,5.5454,5.5737,5.566,5.5662,5.5647,5.5665,5.5811,5.5852,5.5739,5.5735,5.5756,5.5902,5.5954,5.597,5.6198,5.6015,5.6026,5.6034,5.604,5.6598,5.6604,0,0,0,0,0,0,5.5412,5.5444,5.5732,5.5743,5.5531,5.5659,5.5679,5.5751,5.585,5.5859,5.5761,5.5753,5.5934,5.5955,5.5976,5.6224,5.6028,5.6041,5.6048,5.6591,5.6599,5.6607,0,0,0,0,0,0,5.5404,5.5438,5.5724,5.5592,5.5627,5.5672,5.5753,5.5757,5.5808,5.5867,5.5874,5.5806,5.593,5.5958,5.6129,5.623,5.6047,5.6059,5.6583,5.6593,5.6603,5.6721,0,0,0,0,0,0,5.5393,5.5436,5.5513,5.5594,5.5635,5.5873,5.5759,5.5765,5.5831,5.5821,5.591,5.5919,5.5927,5.6109,5.6142,5.6244,5.6069,5.6574,5.6587,5.66,5.6708,5.6734,5.6756,0,0,0,0,0,5.5379,5.554,5.5517,5.5552,5.5732,5.5879,5.5902,5.5907,5.5839,5.5918,5.5956,5.5916,5.6213,5.6128,5.6163,5.6271,5.6567,5.6583,5.6599,5.6697,5.6729,5.6755,0,0,0,0,0,0,5.547,5.555,5.5526,5.5718,5.5792,5.5867,5.5967,5.594,5.6036,5.6023,5.6026,5.6047,5.6224,5.6264,5.6168,5.6476,5.638,5.6404,5.6443,5.6473,5.6497,5.6484,5.608,0,0,0,0,0,5.5512,5.5624,5.5688,5.5851,5.5889,5.5922,5.5986,5.5983,5.6061,5.6092,5.6142,5.622,5.6331,5.6404,5.6509,5.6713,5.6733,5.6805,5.6829,5.6848,5.6869,5.6982,5.7016,5.6658,5.6658,5.6657,0,0,5.5601,5.5659,5.5729,5.587,5.5928,5.6045,5.5949,5.6076,5.6163,5.6112,5.6277,5.6316,5.6404,5.6592,5.6678,5.6632,5.6972,5.6868,5.6883,5.6894,5.7002,5.7035,5.7065,5.6668,5.6666,5.6665,0,0,5.5823,5.5877,5.6019,5.6078,5.6165,5.6186,5.622,5.63,5.6324,5.6489,5.6453,5.6558,5.6748,5.6813,5.687,5.7117,5.7086,5.7151,5.7277,5.7387,5.7415,5.744,5.753,5.7562,5.7171,5.7172,5.7172,0,5.5923,5.6096,5.6096,5.6226,5.6291,5.6248,5.6393,5.6451,5.6569,5.6616,5.6561,5.68,5.6856,5.706,5.7121,5.7168,5.7209,5.7142,5.7411,5.7436,5.7459,5.7545,5.7579,5.7179,5.7178,5.7178,5.7177,0,5.6215,5.6336,5.6441,5.6555,5.663,5.6768,5.679,5.6867,5.6858,5.6885,5.7055,5.712,5.7238,5.7286,5.7279,5.749,5.7459,5.7408,5.7313,5.7501,5.7582,5.7615,5.719,5.7187,5.7185,5.7183,0,0,5.65,5.6612,5.6651,5.6703,5.6796,5.6891,5.7027,5.7141,5.7208,5.7291,5.7407,5.7569,5.7523,5.7588,5.7588,5.7684,5.7878,5.7622,5.7624,5.7669,5.8118,5.8157,5.8195,5.7857,5.7863,5.7868,5.8111,0,5.6731,5.6968,5.6972,5.7191,5.7304,5.7265,5.7384,5.7456,5.7485,5.7586,5.7618,5.7734,5.7663,5.7702,5.7796,5.7835,5.7969,5.7817,5.7967,5.7972,5.7948,5.8236,5.8278,5.8504,5.8142,5.8148,5.8151,0,5.7032,5.7123,5.7353,5.7431,5.7479,5.7586,5.7692,5.7788,5.7869,5.7883,5.7957,5.7942,5.8083,5.7981,5.8177,5.8074,5.8135,5.8164,5.8173,5.8188,5.8074,5.8262,5.8576,5.8611,5.8201,5.8197,5.8193,0,5.7219,5.74,5.7561,5.7606,5.7701,5.7777,5.7821,5.7895,5.7964,5.8057,5.8102,5.8211,5.8271,5.8357,5.8372,5.8297,5.8569,5.8469,5.8587,5.8587,5.8648,5.8644,5.8978,5.8684,5.8684,5.8683,5.8682,0,5.7477,5.762,5.7647,5.7746,5.7906,5.7909,5.8067,5.8105,5.8172,5.8279,5.8252,5.8354,5.8368,5.8474,5.8487,5.8648,5.8675,5.8692,5.8694,5.8696,5.8694,5.8737,5.8723,5.8692,5.869,5.8688,5.8687,0,5.7714,5.7738,5.7911,5.7986,5.8009,5.8123,5.8188,5.8285,5.831,5.8447,5.8479,5.852,5.8644,5.8667,5.8813,5.8822,5.9015,5.9,5.8987,5.8986,5.9104,5.9093,5.9479,5.9531,5.9202,5.9205,5.9207,0,5.7879,5.7987,5.8074,5.8143,5.819,5.8302,5.8372,5.838,5.8455,5.8555,5.864,5.876,5.8857,5.9056,5.91,5.9212,5.9201,5.9329,5.9218,5.9216,5.9206,5.92,5.9211,5.935,5.9354,5.9357,5.9359,0,5.8168,5.8174,5.8275,5.8382,5.8466,5.855,5.863,5.8689,5.8708,5.8793,5.8918,5.8993,5.9141,5.9262,5.9374,5.942,5.9395,5.9393,5.9427,5.9431,5.9419,5.9429,5.9047,5.9385,5.9382,5.9381,5.9379,5.9378,5.8376,5.8471,5.8547,5.8661,5.8722,5.8797,5.8891,5.8928,5.9032,5.9153,5.9152,5.9289,5.9369,5.9516,5.9569,5.9678,5.9638,5.9686,5.9699,5.9711,5.9723,5.94,5.9698,5.9697,5.9697,5.9696,5.9696,0,5.8666,5.8712,5.8817,5.8929,5.902,5.8985,5.9072,5.915,5.9271,5.9346,5.9442,5.9586,5.9703,5.9756,5.9872,5.9949,5.994,5.9979,5.9975,5.9986,5.9751,5.9712,5.9984,5.9984,5.9984,5.9984,5.9984,5.9984,5.8827,5.8987,5.9003,5.9193,5.9239,5.9373,5.9425,5.9496,5.9556,5.9718,5.9814,5.9847,5.9915,6.0035,6.0141,6.0154,6.0198,6.0244,6.0251,6.0032,6.0002,5.9975,5.9937,6.0253,6.0253,6.0477,6.0479,6.0481]},{"header":{"parameterUnit":"m.s-1","parameterCategory":1,"la1":30.2991,"la2":30.254,"lo1":-89.0895,"lo2":-89.0444,"dy":0.0017,"dx":0.0017,"nx":28,"ny":28,"refTime":"2024-04-02T09:00:00:Z","depth":0,"parameterNumber":3,"parameterNumberName":"V-component_of_WINDS"},"data":[0,0,0,0,0,0,0,0,0,0,0,0,0,0,0,0,0,0,0,0,0,0,0,0,0,0,0,0,0,0,0,0,0,0,0,0,0,0,0,0,0,0,0,0,0,0,0,0,0,0,0,0,0,0,0,0,0,0,-1.6532,-1.6532,0,-1.6609,-1.661,-1.6611,-1.6623,-1.6622,-1.6621,-1.6621,-1.6703,-1.6706,-1.6709,0,0,0,0,0,0,0,0,0,0,0,0,0,-1.6396,-1.6398,-1.6531,-1.6532,-1.6533,-1.6609,-1.661,-1.6611,-1.6623,-1.6622,-1.6621,-1.662,-1.6702,-1.6705,-1.6709,0,0,0,0,0,0,0,0,0,0,0,0,0,-1.6462,-1.6399,-1.6531,-1.6548,-1.6551,-1.6609,-1.661,-1.6612,-1.6623,-1.6622,-1.6621,-1.662,-1.6701,-1.6705,-1.6709,-1.6757,0,0,-1.6722,-1.6724,0,0,0,0,0,0,0,0,-1.6459,-1.6467,-1.6545,-1.6547,-1.655,-1.6605,-1.6593,-1.6661,-1.6623,-1.6596,-1.6621,-1.662,-1.6672,-1.6678,-1.6695,-1.6761,-1.6764,-1.6723,-1.6725,-1.6727,-1.6728,0,0,0,0,0,0,0,-1.6454,-1.6464,-1.6562,-1.6546,-1.6549,-1.6553,-1.6561,-1.6606,-1.6639,-1.6598,-1.6599,-1.6608,-1.6673,-1.6691,-1.6697,-1.6766,-1.6723,-1.6726,-1.6729,-1.6731,-1.6876,-1.6878,0,0,0,0,0,0,-1.6446,-1.646,-1.656,-1.6565,-1.6501,-1.6556,-1.6566,-1.6589,-1.6638,-1.6645,-1.6609,-1.6608,-1.6684,-1.6692,-1.67,-1.676,-1.6727,-1.6731,-1.6734,-1.6875,-1.6877,-1.6878,0,0,0,0,0,0,-1.6443,-1.6455,-1.6557,-1.6513,-1.6526,-1.656,-1.6586,-1.6591,-1.6609,-1.6646,-1.6653,-1.6621,-1.6684,-1.6694,-1.6743,-1.6763,-1.6733,-1.6737,-1.6874,-1.6876,-1.6877,-1.6881,0,0,0,0,0,0,-1.6439,-1.6453,-1.6471,-1.6513,-1.6528,-1.6597,-1.6587,-1.6593,-1.6616,-1.6616,-1.666,-1.6666,-1.6684,-1.6737,-1.6747,-1.6769,-1.674,-1.6872,-1.6875,-1.6877,-1.6879,-1.6882,-1.6886,0,0,0,0,0,-1.6434,-1.6469,-1.6472,-1.6484,-1.6551,-1.6598,-1.6607,-1.6626,-1.6618,-1.6636,-1.6661,-1.6665,-1.6759,-1.6742,-1.6754,-1.6777,-1.6871,-1.6874,-1.6877,-1.6877,-1.6882,-1.6885,0,0,0,0,0,0,-1.6429,-1.6475,-1.6479,-1.6528,-1.6559,-1.66,-1.6624,-1.663,-1.6665,-1.6664,-1.6687,-1.6697,-1.6745,-1.6766,-1.6745,-1.6826,-1.6815,-1.682,-1.6811,-1.6815,-1.6819,-1.6813,-1.6744,0,0,0,0,0,-1.6434,-1.6468,-1.6506,-1.6546,-1.6562,-1.659,-1.6612,-1.6624,-1.6657,-1.6671,-1.6699,-1.6732,-1.6769,-1.6793,-1.683,-1.6882,-1.6892,-1.6904,-1.6907,-1.691,-1.6914,-1.6945,-1.6951,-1.6888,-1.6888,-1.6888,0,0,-1.6444,-1.6473,-1.6493,-1.6546,-1.6572,-1.6607,-1.6601,-1.6639,-1.6666,-1.6677,-1.6725,-1.6746,-1.6785,-1.6836,-1.686,-1.6855,-1.6934,-1.6914,-1.6915,-1.6919,-1.6949,-1.6955,-1.696,-1.689,-1.6889,-1.6889,0,0,-1.6481,-1.6506,-1.6542,-1.6568,-1.6607,-1.6626,-1.6635,-1.6675,-1.669,-1.6738,-1.6747,-1.678,-1.6844,-1.6872,-1.6894,-1.6942,-1.6948,-1.6954,-1.6971,-1.7001,-1.7006,-1.701,-1.7029,-1.7035,-1.6958,-1.6958,-1.6958,0,-1.6489,-1.6542,-1.6561,-1.6598,-1.6622,-1.6633,-1.6671,-1.6695,-1.6744,-1.6761,-1.6754,-1.6835,-1.6862,-1.692,-1.6932,-1.695,-1.6961,-1.6949,-1.7003,-1.7008,-1.7013,-1.7031,-1.7037,-1.6959,-1.6959,-1.6959,-1.6959,0,-1.6551,-1.6587,-1.6612,-1.6659,-1.6685,-1.6723,-1.6748,-1.6773,-1.6783,-1.6803,-1.6853,-1.6886,-1.693,-1.6944,-1.6955,-1.7005,-1.7001,-1.6998,-1.6987,-1.7019,-1.7036,-1.7043,-1.6959,-1.6959,-1.6959,-1.6959,0,0,-1.6587,-1.6643,-1.6652,-1.6674,-1.6718,-1.6747,-1.6786,-1.6828,-1.6849,-1.6883,-1.6917,-1.6971,-1.697,-1.6995,-1.7009,-1.7035,-1.7073,-1.703,-1.7031,-1.7037,-1.7131,-1.7133,-1.7141,-1.7076,-1.7078,-1.7079,-1.7128,0,-1.6629,-1.6697,-1.6716,-1.6774,-1.6809,-1.6821,-1.6855,-1.6886,-1.6906,-1.694,-1.6962,-1.7001,-1.6995,-1.7011,-1.7037,-1.7062,-1.7092,-1.7059,-1.711,-1.7111,-1.71,-1.7149,-1.7151,-1.7197,-1.7135,-1.7136,-1.7137,0,-1.6688,-1.6722,-1.6784,-1.6824,-1.684,-1.687,-1.6911,-1.6942,-1.6978,-1.6991,-1.702,-1.7032,-1.7074,-1.706,-1.712,-1.7097,-1.7119,-1.7134,-1.7137,-1.7143,-1.7126,-1.7158,-1.7211,-1.7218,-1.7148,-1.7147,-1.7146,0,-1.6709,-1.6771,-1.6816,-1.6834,-1.6882,-1.6903,-1.6924,-1.6959,-1.6984,-1.702,-1.7037,-1.7077,-1.71,-1.7132,-1.7155,-1.7142,-1.7213,-1.72,-1.7226,-1.7225,-1.7241,-1.7239,-1.7299,-1.7253,-1.7253,-1.7253,-1.7253,0,-1.6755,-1.6793,-1.6826,-1.6854,-1.6897,-1.6919,-1.6961,-1.6983,-1.7014,-1.7048,-1.706,-1.7091,-1.7119,-1.7155,-1.7173,-1.722,-1.723,-1.7243,-1.7247,-1.7242,-1.7241,-1.7257,-1.7255,-1.7255,-1.7255,-1.7254,-1.7254,0,-1.6786,-1.681,-1.686,-1.6901,-1.6913,-1.6943,-1.6979,-1.7007,-1.7027,-1.707,-1.7081,-1.7114,-1.7156,-1.7182,-1.7236,-1.7248,-1.7301,-1.7304,-1.7288,-1.7291,-1.7315,-1.7313,-1.7389,-1.74,-1.7345,-1.7346,-1.7346,0,-1.6815,-1.6844,-1.6888,-1.6911,-1.6932,-1.6968,-1.6994,-1.7016,-1.7042,-1.7086,-1.711,-1.7153,-1.7188,-1.7256,-1.7286,-1.7328,-1.7332,-1.7356,-1.7339,-1.7333,-1.7334,-1.7332,-1.7336,-1.7359,-1.7359,-1.736,-1.736,0,-1.6863,-1.6873,-1.6908,-1.6948,-1.6977,-1.701,-1.7042,-1.706,-1.7089,-1.7117,-1.7161,-1.7188,-1.7244,-1.7287,-1.7331,-1.7355,-1.7363,-1.7365,-1.7374,-1.7369,-1.7359,-1.7366,-1.7297,-1.7363,-1.7363,-1.7363,-1.7363,-1.7363,-1.6894,-1.6921,-1.6956,-1.6995,-1.7022,-1.7052,-1.7081,-1.7105,-1.7141,-1.7187,-1.7199,-1.7245,-1.7282,-1.7342,-1.7366,-1.7404,-1.74,-1.7412,-1.7415,-1.7418,-1.7419,-1.7352,-1.7412,-1.7412,-1.7412,-1.7412,-1.7411,0,-1.6944,-1.6967,-1.7002,-1.7047,-1.7078,-1.7082,-1.7119,-1.7145,-1.7185,-1.7218,-1.7253,-1.7303,-1.7346,-1.7378,-1.7422,-1.7446,-1.7451,-1.7457,-1.7456,-1.7461,-1.7419,-1.7408,-1.7452,-1.7452,-1.7452,-1.7452,-1.7452,-1.7452,-1.6973,-1.7019,-1.7034,-1.7094,-1.7117,-1.7161,-1.7182,-1.721,-1.7237,-1.7293,-1.7328,-1.7348,-1.7382,-1.7429,-1.7468,-1.7477,-1.7493,-1.7498,-1.7508,-1.7468,-1.7464,-1.746,-1.7449,-1.7501,-1.7502,-1.7547,-1.7548,-1.7548]}]]